| time (UTC) | temp F | wind direction | speed MPH | gust MPH | rain 1hr in | rain 24hr in | rain mn in | humidity % | barometer mb |
| 20260504205518 | 69 | 269 | 5.0 | 14.0 | 259.92 | 0.00 | 0.00 | ||
| 20260504202519 | 70 | 274 | 6.0 | 13.0 | 259.92 | 0.00 | 0.00 | ||
| 20260504202018 | 69 | 301 | 9.0 | 19.0 | 259.92 | 0.00 | 0.00 | ||
| 20260504201518 | 69 | 288 | 9.0 | 19.0 | 259.92 | 0.00 | 0.00 | ||
| 20260504201018 | 70 | 311 | 8.0 | 19.0 | 259.92 | 0.00 | 0.00 | ||
| 20260504200518 | 70 | 304 | 7.0 | 14.0 | 259.92 | 0.00 | 0.00 | ||
| 20260504200018 | 70 | 280 | 8.0 | 16.0 | 259.92 | 0.00 | 0.00 | ||
| 20260504195518 | 69 | 330 | 7.0 | 17.0 | 259.92 | 0.00 | 0.00 | ||
| 20260504194518 | 69 | 281 | 4.0 | 13.0 | 259.92 | 0.00 | 0.00 | ||
| 20260504193518 | 67 | 290 | 5.0 | 11.0 | 259.92 | 0.00 | 0.00 | ||
| 20260504184019 | 68 | 315 | 5.0 | 18.0 | 259.92 | 0.00 | 0.00 | ||
| 20260504183518 | 68 | 312 | 4.0 | 13.0 | 259.92 | 0.00 | 0.00 | ||
| 20260504181518 | 63 | 319 | 6.0 | 14.0 | 259.92 | 0.00 | 0.00 | ||
| 20260504175518 | 62 | 281 | 8.0 | 19.0 | 259.92 | 0.00 | 0.00 | ||
| 20260504174518 | 62 | 318 | 8.0 | 19.0 | 259.92 | 0.00 | 0.00 | ||
| 20260504173518 | 62 | 319 | 9.0 | 20.0 | 259.92 | 0.00 | 0.00 | ||
| 20260504172518 | 62 | 293 | 8.0 | 22.0 | 259.92 | 0.00 | 0.00 | ||
| 20260504171018 | 63 | 256 | 9.0 | 21.0 | 259.92 | 0.00 | 0.00 | ||
| 20260504151018 | 68 | 249 | 10.0 | 21.0 | 259.92 | 0.00 | 0.00 | ||
| 20260504110518 | 45 | 222 | 3.0 | 6.0 | 259.92 | 0.00 | 0.00 | ||
| 20260504100518 | 42 | 308 | 4.0 | 7.0 | 259.92 | 0.00 | 0.00 | ||
| 20260504081518 | 43 | 276 | 7.0 | 13.0 | 259.92 | 0.00 | 0.00 | ||
| 20260504050519 | 41 | 278 | 5.0 | 10.0 | 259.92 | 0.00 | 0.00 | ||
| 20260504050018 | 41 | 280 | 5.0 | 13.0 | 259.92 | 0.00 | 0.00 | ||
| 20260504045518 | 41 | 270 | 5.0 | 11.0 | 259.92 | 0.00 | 0.00 | ||
| 20260504045019 | 41 | 294 | 5.0 | 10.0 | 259.92 | 0.00 | 0.00 | ||
| 20260504044519 | 41 | 281 | 5.0 | 11.0 | 259.92 | 0.00 | 0.00 | ||
| 20260504044019 | 41 | 267 | 5.0 | 11.0 | 259.92 | 0.00 | 0.00 | ||
| 20260504042518 | 40 | 280 | 6.0 | 11.0 | 259.92 | 0.00 | 0.00 | ||
| 20260504042019 | 40 | 291 | 4.0 | 11.0 | 259.92 | 0.00 | 0.00 | ||
| 20260504041519 | 41 | 270 | 5.0 | 9.0 | 259.92 | 0.00 | 0.00 | ||
| 20260504040018 | 40 | 276 | 5.0 | 12.0 | 259.92 | 0.00 | 0.00 | ||
| 20260504035019 | 40 | 291 | 6.0 | 15.0 | 259.92 | 0.00 | 0.00 | ||
| 20260504034518 | 40 | 263 | 6.0 | 11.0 | 259.92 | 0.00 | 0.00 | ||
| 20260504033019 | 40 | 262 | 6.0 | 13.0 | 259.92 | 0.00 | 0.06 | ||
| 20260504032518 | 40 | 309 | 6.0 | 15.0 | 259.92 | 0.00 | 0.06 | ||
| 20260504031019 | 41 | 284 | 5.0 | 11.0 | 259.92 | 0.00 | 0.06 | ||
| 20260504025519 | 40 | 290 | 4.0 | 12.0 | 259.92 | 0.00 | 0.06 | ||
| 20260504025019 | 40 | 260 | 3.0 | 6.0 | 259.92 | 0.00 | 0.06 | ||
| 20260504021519 | 42 | 311 | 3.0 | 9.0 | 259.92 | 0.00 | 0.06 | ||
| 20260504020019 | 41 | 266 | 3.0 | 7.0 | 259.92 | 0.00 | 0.06 | ||
| 20260504014519 | 42 | 301 | 3.0 | 8.0 | 259.92 | 0.00 | 0.06 | ||
| 20260504014019 | 43 | 316 | 3.0 | 8.0 | 259.92 | 0.00 | 0.06 | ||
| 20260504013019 | 42 | 309 | 4.0 | 11.0 | 259.92 | 0.00 | 0.06 | ||
| 20260504012019 | 42 | 298 | 5.0 | 13.0 | 259.92 | 0.00 | 0.06 | ||
| 20260504011019 | 43 | 316 | 6.0 | 13.0 | 259.92 | 0.00 | 0.06 | ||
| 20260504010019 | 43 | 322 | 5.0 | 13.0 | 259.92 | 0.00 | 0.06 | ||
| 20260504004519 | 42 | 297 | 4.0 | 15.0 | 259.92 | 0.00 | 0.06 | ||
| 20260504004019 | 43 | 305 | 4.0 | 12.0 | 259.92 | 0.00 | 0.06 | ||
| 20260504003019 | 43 | 291 | 2.0 | 8.0 | 259.92 | 0.00 | 0.06 | ||
| 20260504001019 | 43 | 339 | 3.0 | 10.0 | 259.92 | 0.00 | 0.06 | ||
| 20260503235520 | 43 | 260 | 2.0 | 11.0 | 259.92 | 0.00 | 0.06 | ||
| 20260503235019 | 44 | 269 | 4.0 | 10.0 | 259.92 | 0.00 | 0.06 | ||
| 20260503234019 | 44 | 328 | 3.0 | 11.0 | 259.92 | 0.00 | 0.06 | ||
| 20260503233019 | 45 | 315 | 4.0 | 11.0 | 259.92 | 0.00 | 0.06 | ||
| 20260503232519 | 45 | 328 | 4.0 | 12.0 | 259.92 | 0.00 | 0.06 | ||
| 20260503232019 | 45 | 270 | 6.0 | 14.0 | 259.92 | 0.00 | 0.06 | ||
| 20260503231019 | 45 | 269 | 6.0 | 21.0 | 259.92 | 0.00 | 0.06 | ||
| 20260503230519 | 46 | 322 | 7.0 | 18.0 | 259.92 | 0.00 | 0.06 | ||
| 20260503225019 | 47 | 301 | 4.0 | 11.0 | 259.92 | 0.00 | 0.06 | ||
| 20260503223519 | 46 | 325 | 3.0 | 12.0 | 259.92 | 0.00 | 0.06 | ||
| 20260503221019 | 48 | 290 | 6.0 | 15.0 | 259.92 | 0.00 | 0.06 | ||
| 20260503220019 | 48 | 293 | 6.0 | 19.0 | 259.92 | 0.00 | 0.06 | ||
| 20260503215519 | 49 | 245 | 4.0 | 13.0 | 259.92 | 0.00 | 0.06 | ||
| 20260503215019 | 48 | 242 | 8.0 | 17.0 | 259.92 | 0.00 | 0.06 | ||
| 20260503214019 | 46 | 8 | 6.0 | 14.0 | 259.92 | 0.00 | 0.06 | ||
| 20260503213520 | 46 | 277 | 5.0 | 13.0 | 259.92 | 0.00 | 0.06 | ||
| 20260503213019 | 46 | 330 | 6.0 | 17.0 | 259.92 | 0.00 | 0.06 | ||
| 20260503212019 | 47 | 339 | 5.0 | 14.0 | 259.92 | 0.00 | 0.06 | ||
| 20260503211519 | 48 | 339 | 5.0 | 15.0 | 259.92 | 0.00 | 0.06 | ||
| 20260503211019 | 48 | 297 | 6.0 | 16.0 | 259.92 | 0.00 | 0.06 | ||
| 20260503210519 | 49 | 318 | 3.0 | 10.0 | 259.92 | 0.00 | 0.06 |